FW9226 Weather Reports


Display with metric or nautical units.
time (UTC)temp
F
wind
direction
speed
MPH
gust
MPH
rain 1hr
in
rain 24hr
in
rain mn
in
humidity
%
barometer
mb
20260906052002 52 108 0.0 1.0 0.00 0.00 0.00 76 1017.6
20260906051502 52 108 0.0 1.0 0.00 0.00 0.00 75 1017.7
20260906051006 52 108 0.0 1.0 0.00 0.00 0.00 75 1017.7
20260906050007 52 108 0.0 0.0 0.00 0.00 0.00 74 1017.8
20260906045504 53 108 0.0 0.0 0.00 0.00 0.00 74 1017.8
20260906045006 53 108 0.0 1.0 0.00 0.00 0.00 73 1017.7
20260906044005 53 108 0.0 1.0 0.00 0.00 0.00 73 1017.7
20260906043505 53 108 0.0 1.0 0.00 0.00 0.00 73 1017.6
20260906043006 53 108 0.0 1.0 0.00 0.00 0.00 73 1017.5
20260906042502 53 108 0.0 1.0 0.00 0.00 0.00 72 1017.5
20260906042006 54 108 0.0 1.0 0.00 0.00 0.00 72 1017.5
20260906041503 54 108 0.0 1.0 0.00 0.00 0.00 72 1017.5
20260906041006 53 108 0.0 0.0 0.00 0.00 0.00 72 1017.5
20260906040504 53 108 0.0 0.0 0.00 0.00 0.00 71 1017.6
20260906040008 54 108 0.0 0.0 0.00 0.00 0.00 71 1017.6
20260906035504 54 108 0.0 0.0 0.00 0.00 0.00 71 1017.5
20260906035008 54 108 0.0 0.0 0.00 0.00 0.00 71 1017.6
20260906034505 54 108 0.0 0.0 0.00 0.00 0.00 71 1017.5
20260906034004 54 108 0.0 0.0 0.00 0.00 0.00 70 1017.5
20260906033504 55 108 0.0 0.0 0.00 0.00 0.00 70 1017.5
20260906033007 55 108 0.0 0.0 0.00 0.00 0.00 70 1017.5
20260906032004 56 108 0.0 0.0 0.00 0.00 0.00 68 1017.4
20260906031503 56 108 0.0 0.0 0.00 0.00 0.00 67 1017.4
20260906031005 56 108 0.0 0.0 0.00 0.00 0.00 67 1017.4
20260906030004 57 108 0.0 1.0 0.00 0.00 0.00 66 1017.4
20260906025503 57 108 0.0 1.0 0.00 0.00 0.00 66 1017.4
20260906025007 57 108 0.0 0.0 0.00 0.00 0.00 66 1017.4
20260906024504 58 108 0.0 0.0 0.00 0.00 0.00 66 1017.3
20260906024003 58 108 0.0 1.0 0.00 0.00 0.00 65 1017.4
20260906023503 58 108 0.0 1.0 0.00 0.00 0.00 65 1017.5
20260906022504 59 109 0.0 0.0 0.00 0.00 0.00 64 1017.4
20260906021503 60 109 0.0 0.0 0.00 0.00 0.00 62 1017.5
20260906021003 60 109 0.0 0.0 0.00 0.00 0.00 62 1017.4
20260906020007 61 109 0.0 0.0 0.00 0.00 0.00 61 1017.5
20260906015503 61 109 0.0 0.0 0.00 0.00 0.00 59 1017.5
20260906015005 61 109 0.0 0.0 0.00 0.00 0.00 59 1017.5
20260906014503 62 109 0.0 0.0 0.00 0.00 0.00 58 1017.5
20260906014004 62 109 0.0 1.0 0.00 0.00 0.00 57 1017.5
20260906013503 63 109 0.0 2.0 0.00 0.00 0.00 56 1017.6
20260906013004 63 88 0.0 3.0 0.00 0.00 0.00 55 1017.5
20260906012503 63 101 0.0 3.0 0.00 0.00 0.00 55 1017.6
20260906012003 64 115 0.0 1.0 0.00 0.00 0.00 54 1017.6
20260906011506 64 115 0.0 1.0 0.00 0.00 0.00 54 1017.5
20260906011004 64 115 0.0 2.0 0.00 0.00 0.00 53 1017.5
20260906010503 64 127 1.0 7.0 0.00 0.00 0.00 51 1017.5
20260906010008 65 250 1.0 7.0 0.00 0.00 0.00 51 1017.5
20260906005503 65 255 0.0 4.0 0.00 0.00 0.00 51 1017.5
20260906005003 65 226 0.0 3.0 0.00 0.00 0.00 51 1017.5
20260906004500 66 106 0.0 4.0 0.00 0.00 0.00 50 1017.6
20260906004003 66 254 1.0 4.0 0.00 0.00 0.00 50 1017.6
20260906003504 66 236 1.0 3.0 0.00 0.00 0.00 49 1017.5
20260906003001 67 203 0.0 3.0 0.00 0.00 0.00 49 1017.5
20260906002503 67 200 0.0 2.0 0.00 0.00 0.00 48 1017.4
20260906002003 67 124 1.0 5.0 0.00 0.00 0.00 48 1017.4
20260906001503 67 161 1.0 5.0 0.00 0.00 0.00 48 1017.6
20260906001004 68 171 1.0 3.0 0.00 0.00 0.00 47 1017.5
20260906000503 68 260 1.0 2.0 0.00 0.00 0.00 47 1017.5
20260906000008 68 96 1.0 7.0 0.00 0.00 0.00 46 1017.4
20260905235501 69 129 1.0 7.0 0.00 0.00 0.00 46 1017.5
20260905235000 69 130 1.0 4.0 0.00 0.00 0.00 45 1017.5
20260905234005 70 116 1.0 8.0 0.00 0.00 0.00 44 1017.4
20260905233507 70 313 2.0 5.0 0.00 0.00 0.00 44 1017.4
20260905232502 71 143 1.0 6.0 0.00 0.00 0.00 42 1017.5
20260905231504 72 148 1.0 9.0 0.00 0.00 0.00 41 1017.5
20260905231004 73 133 1.0 5.0 0.00 0.00 0.00 41 1017.5
20260905230503 72 314 2.0 5.0 0.00 0.00 0.00 41 1017.5
20260905230009 72 156 2.0 7.0 0.00 0.00 0.00 41 1017.5
20260905225503 72 276 2.0 5.0 0.00 0.00 0.00 42 1017.8
20260905225004 71 150 3.0 8.0 0.00 0.00 0.00 43 1017.7
20260905224503 71 136 3.0 8.0 0.00 0.00 0.00 43 1017.8
20260905224004 72 148 2.0 8.0 0.00 0.00 0.00 42 1017.7
20260905223004 72 86 2.0 7.0 0.00 0.00 0.00 42 1017.7
20260905222500 72 90 2.0 7.0 0.00 0.00 0.00 42 1017.7
20260905222003 72 124 2.0 6.0 0.00 0.00 0.00 42 1017.7
20260905221459 72 304 2.0 10.0 0.00 0.00 0.00 41 1017.6
20260905221004 73 238 2.0 10.0 0.00 0.00 0.00 40 1017.7
20260905220459 73 246 2.0 6.0 0.00 0.00 0.00 42 1017.7
20260905220002 72 229 2.0 7.0 0.00 0.00 0.00 42 1017.8
20260905215505 72 183 2.0 6.0 0.00 0.00 0.00 42 1017.8
20260905215003 71 194 2.0 6.0 0.00 0.00 0.00 43 1017.8
20260905213007 70 131 3.0 9.0 0.00 0.00 0.00 45 1017.8
20260905212504 71 114 3.0 9.0 0.00 0.00 0.00 43 1017.8
20260905212002 71 69 3.0 9.0 0.00 0.00 0.00 43 1017.8
20260905211505 71 139 3.0 9.0 0.00 0.00 0.00 42 1017.8
20260905211004 71 266 2.0 7.0 0.00 0.00 0.00 43 1017.9
20260905210507 71 312 2.0 7.0 0.00 0.00 0.00 44 1017.8
20260905210000 70 229 2.0 6.0 0.00 0.00 0.00 45 1017.8
20260905205502 70 120 2.0 6.0 0.00 0.00 0.00 44 1017.9
20260905205003 71 175 2.0 5.0 0.00 0.00 0.00 43 1017.8
20260905204507 72 236 2.0 5.0 0.00 0.00 0.00 44 1017.9
20260905204007 72 208 2.0 12.0 0.00 0.00 0.00 43 1017.9
20260905203507 72 214 3.0 12.0 0.00 0.00 0.00 43 1017.9
20260905203004 71 245 3.0 9.0 0.00 0.00 0.00 44 1017.9
20260905202504 71 238 2.0 8.0 0.00 0.00 0.00 44 1017.7
20260905202006 71 222 2.0 9.0 0.00 0.00 0.00 46 1017.8
20260905201505 70 240 3.0 9.0 0.00 0.00 0.00 46 1017.8
20260905201007 69 240 3.0 11.0 0.00 0.00 0.00 46 1017.7
20260905200508 69 151 2.0 11.0 0.00 0.00 0.00 46 1017.8
20260905200008 69 145 2.0 9.0 0.00 0.00 0.00 47 1017.8
20260905195506 70 108 2.0 8.0 0.00 0.00 0.00 46 1017.9
20260905195005 71 272 2.0 5.0 0.00 0.00 0.00 45 1017.8
20260905194009 72 207 3.0 10.0 0.00 0.00 0.00 44 1017.9
20260905193503 71 64 3.0 13.0 0.00 0.00 0.00 45 1017.8
20260905193004 71 217 3.0 13.0 0.00 0.00 0.00 44 1017.9
20260905192506 70 218 3.0 11.0 0.00 0.00 0.00 45 1017.9
20260905192019 71 301 2.0 10.0 0.00 0.00 0.00 45 1018.1
20260905191505 71 160 2.0 6.0 0.00 0.00 0.00 44 1018.0
20260905191005 71 140 2.0 7.0 0.00 0.00 0.00 43 1018.1
20260905190504 72 141 2.0 8.0 0.00 0.00 0.00 44 1018.0
20260905190003 71 133 2.0 8.0 0.00 0.00 0.00 46 1018.1
20260905185504 71 249 2.0 11.0 0.00 0.00 0.00 46 1018.1
20260905185008 71 214 3.0 11.0 0.00 0.00 0.00 45 1018.0
20260905184504 71 146 2.0 7.0 0.00 0.00 0.00 45 1018.0
20260905184007 71 295 1.0 5.0 0.00 0.00 0.00 47 1018.0
20260905183504 69 255 2.0 5.0 0.00 0.00 0.00 48 1018.0
20260905183006 69 155 2.0 5.0 0.00 0.00 0.00 47 1018.1
20260905182507 69 59 1.0 6.0 0.00 0.00 0.00 49 1018.1
20260905182007 68 2 2.0 7.0 0.00 0.00 0.00 50 1018.0
20260905181503 67 206 2.0 7.0 0.00 0.00 0.00 51 1018.0
20260905180506 67 217 1.0 5.0 0.00 0.00 0.00 52 1017.8
20260905180010 67 200 1.0 4.0 0.00 0.00 0.00 53 1017.9
20260905175504 65 75 1.0 5.0 0.00 0.00 0.00 55 1017.8
20260905175005 63 215 2.0 5.0 0.00 0.00 0.00 58 1017.8
20260905174505 62 146 1.0 4.0 0.00 0.00 0.00 59 1017.8
20260905174004 62 134 2.0 4.0 0.00 0.00 0.00 58 1017.8
20260905173509 62 134 1.0 6.0 0.00 0.00 0.00 59 1017.8
20260905172504 63 166 1.0 3.0 0.00 0.00 0.00 59 1017.6
20260905172006 63 136 1.0 3.0 0.00 0.00 0.00 58 1017.6
20260905171505 63 123 1.0 3.0 0.00 0.00 0.00 57 1017.5
20260905171005 64 176 1.0 4.0 0.00 0.00 0.00 59 1017.4
20260905170505 63 115 1.0 4.0 0.00 0.00 0.00 57 1017.4
20260905165007 63 217 0.0 2.0 0.00 0.00 0.00 60 1017.3
20260905164004 63 141 0.0 1.0 0.00 0.00 0.00 61 1017.3
20260905163504 63 142 0.0 2.0 0.00 0.00 0.00 61 1017.3
20260905163004 63 150 1.0 3.0 0.00 0.00 0.00 61 1017.3
20260905162504 63 98 1.0 3.0 0.00 0.00 0.00 61 1017.3
20260905162003 63 215 1.0 2.0 0.00 0.00 0.00 62 1017.2
20260905161502 62 210 0.0 2.0 0.00 0.00 0.00 64 1017.3
20260905161007 62 165 0.0 2.0 0.00 0.00 0.00 64 1017.2
20260905160504 61 161 0.0 0.0 0.00 0.00 0.00 65 1017.2
20260905160007 60 162 0.0 1.0 0.00 0.00 0.00 65 1017.1
20260905155504 60 158 0.0 1.0 0.00 0.00 0.00 67 1017.2
20260905155005 60 229 0.0 1.0 0.00 0.00 0.00 66 1017.1
20260905154503 59 271 0.0 1.0 0.00 0.00 0.00 67 1017.0
20260905154005 58 272 0.0 1.0 0.00 0.00 0.00 69 1017.1
20260905153504 57 272 0.0 1.0 0.00 0.00 0.00 70 1017.1
20260905153007 56 273 0.0 0.0 0.00 0.00 0.00 72 1017.1
20260905152504 56 273 0.0 0.0 0.00 0.00 0.00 74 1017.1
20260905152003 55 273 0.0 0.0 0.00 0.00 0.00 75 1017.1
20260905151503 55 273 0.0 0.0 0.00 0.00 0.00 75 1017.0
20260905151005 54 273 0.0 1.0 0.00 0.00 0.00 74 1017.1
20260905150503 55 272 0.0 0.0 0.00 0.00 0.00 73 1017.1
20260905150007 55 272 0.0 0.0 0.00 0.00 0.00 73 1017.0
20260905145005 55 272 0.0 0.0 0.00 0.00 0.00 72 1016.9
20260905144504 55 272 0.0 0.0 0.00 0.00 0.00 72 1016.9
20260905144005 54 272 0.0 1.0 0.00 0.00 0.00 71 1016.8
20260905143503 54 272 0.0 1.0 0.00 0.00 0.00 71 1016.9
20260905143004 54 272 0.0 1.0 0.00 0.00 0.00 71 1016.9
20260905142503 54 272 0.0 0.0 0.00 0.00 0.00 70 1016.9
20260905142002 54 272 0.0 1.0 0.00 0.00 0.00 70 1016.8
20260905141007 54 272 0.0 1.0 0.00 0.00 0.00 70 1016.6
20260905140503 54 272 0.0 1.0 0.00 0.00 0.00 69 1016.7
20260905140007 54 272 0.0 0.0 0.00 0.00 0.00 69 1016.6
20260905135503 54 272 0.0 0.0 0.00 0.00 0.00 68 1016.5
20260905133004 55 272 0.0 1.0 0.00 0.00 0.00 67 1016.5
20260905132503 55 272 0.0 1.0 0.00 0.00 0.00 67 1016.5
20260905131005 54 275 0.0 1.0 0.00 0.00 0.00 67 1016.3
20260905130503 54 275 0.0 0.0 0.00 0.00 0.00 68 1016.3
20260905130008 54 275 0.0 0.0 0.00 0.00 0.00 68 1016.4
20260905125505 54 275 0.0 1.0 0.00 0.00 0.00 68 1016.3
20260905124503 53 275 0.0 1.0 0.00 0.00 0.00 69 1016.5
20260905124004 53 275 0.0 1.0 0.00 0.00 0.00 70 1016.5
20260905123505 53 275 0.0 1.0 0.00 0.00 0.00 69 1016.5
20260905123004 53 275 0.0 1.0 0.00 0.00 0.00 68 1016.5
20260905122504 53 274 0.0 1.0 0.00 0.00 0.00 69 1016.5
20260905121507 52 274 0.0 0.0 0.00 0.00 0.00 70 1016.6
20260905121003 52 274 0.0 1.0 0.00 0.00 0.00 70 1016.6
20260905120503 52 274 0.0 0.0 0.00 0.00 0.00 70 1016.6
20260905115504 52 274 0.0 0.0 0.00 0.00 0.00 69 1016.7
20260905115002 52 274 0.0 0.0 0.00 0.00 0.00 69 1016.8
20260905114504 52 274 0.0 1.0 0.00 0.00 0.00 69 1016.7
20260905114003 53 274 0.0 1.0 0.00 0.00 0.00 69 1016.7
20260905113504 53 274 0.0 0.0 0.00 0.00 0.00 69 1016.7
20260905113003 52 274 0.0 0.0 0.00 0.00 0.00 69 1016.7
20260905112505 53 274 0.0 1.0 0.00 0.00 0.00 68 1016.8
20260905112004 53 274 0.0 0.0 0.00 0.00 0.00 68 1016.8
20260905111504 53 274 0.0 1.0 0.00 0.00 0.00 68 1016.8
20260905111008 52 274 0.0 1.0 0.00 0.00 0.00 68 1016.7
20260905105503 52 274 0.0 0.0 0.00 0.00 0.00 68 1016.9
20260905104503 52 274 0.0 1.0 0.00 0.00 0.00 68 1017.0
20260905103503 52 274 0.0 0.0 0.00 0.00 0.00 69 1017.0
20260905102504 52 274 0.0 0.0 0.00 0.00 0.00 68 1017.0
20260905102003 52 274 0.0 0.0 0.00 0.00 0.00 67 1017.0
20260905101501 53 274 0.0 1.0 0.00 0.00 0.00 67 1017.1
20260905101005 53 274 0.0 1.0 0.00 0.00 0.00 67 1017.1
20260905100008 52 274 0.0 0.0 0.00 0.00 0.00 68 1017.0
20260905095003 52 274 0.0 1.0 0.00 0.00 0.00 68 1017.0
20260905094503 51 274 0.0 1.0 0.00 0.00 0.00 69 1017.1
20260905094001 51 274 0.0 0.0 0.00 0.00 0.00 69 1017.1
20260905093503 51 274 0.0 1.0 0.00 0.00 0.00 69 1017.1
20260905093008 51 274 0.0 1.0 0.00 0.00 0.00 70 1017.2
20260905092503 51 274 0.0 1.0 0.00 0.00 0.00 69 1017.1
20260905092004 51 274 0.0 1.0 0.00 0.00 0.00 68 1017.2
20260905091504 52 274 0.0 0.0 0.00 0.00 0.00 67 1017.2
20260905091005 52 274 0.0 0.0 0.00 0.00 0.00 67 1017.3
20260905090503 52 274 0.0 0.0 0.00 0.00 0.00 66 1017.3
20260905085503 52 274 0.0 1.0 0.00 0.00 0.00 65 1017.3
20260905085005 52 274 0.0 1.0 0.00 0.00 0.00 66 1017.3
20260905084504 52 274 0.0 1.0 0.00 0.00 0.00 66 1017.3
20260905084003 52 273 0.0 1.0 0.00 0.00 0.00 65 1017.4
20260905083503 53 273 0.0 1.0 0.00 0.00 0.00 65 1017.4
20260905082503 53 272 0.0 0.0 0.00 0.00 0.00 64 1017.5
20260905082004 53 272 0.0 1.0 0.00 0.00 0.00 64 1017.5
20260905081505 53 272 0.0 1.0 0.00 0.00 0.00 64 1017.5
20260905081003 53 272 0.0 1.0 0.00 0.00 0.00 64 1017.5
20260905080500 53 272 0.0 1.0 0.00 0.00 0.00 63 1017.5
20260905080009 53 272 0.0 1.0 0.00 0.00 0.00 63 1017.5
20260905075503 53 272 0.0 1.0 0.00 0.00 0.00 63 1017.5
20260905075001 53 272 0.0 1.0 0.00 0.00 0.00 63 1017.5
20260905074503 53 272 0.0 1.0 0.00 0.00 0.00 63 1017.5
20260905074004 53 272 0.0 1.0 0.00 0.00 0.00 63 1017.4
20260905073503 53 271 0.0 1.0 0.00 0.00 0.00 64 1017.4
20260905073000 53 270 0.0 1.0 0.00 0.00 0.00 64 1017.4
20260905072502 53 271 0.0 0.0 0.00 0.00 0.00 64 1017.3
20260905072004 53 271 0.0 1.0 0.00 0.00 0.00 63 1017.3
20260905071003 54 271 0.0 1.0 0.00 0.00 0.00 63 1017.1
20260905070502 54 271 0.0 1.0 0.00 0.00 0.00 63 1017.2
20260905070000 54 271 0.0 0.0 0.00 0.00 0.00 62 1017.2
20260905065501 54 271 0.0 0.0 0.00 0.00 0.00 62 1017.2
20260905065003 54 271 0.0 1.0 0.00 0.00 0.00 62 1017.1
20260905064503 54 271 0.0 1.0 0.00 0.00 0.00 62 1017.2
20260905064004 54 246 0.0 1.0 0.00 0.00 0.00 62 1017.1
20260905063505 55 246 0.0 1.0 0.00 0.00 0.00 62 1017.2
20260905062503 55 230 0.0 1.0 0.00 0.00 0.00 62 1017.2
20260905061503 55 229 0.0 0.0 0.00 0.00 0.00 62 1017.1
20260905061003 55 229 0.0 0.0 0.00 0.00 0.00 62 1017.2
20260905060503 54 229 0.0 0.0 0.00 0.00 0.00 62 1017.2
20260905060004 54 229 0.0 0.0 0.00 0.00 0.00 63 1017.1
20260905055502 54 229 0.0 0.0 0.00 0.00 0.00 63 1017.1
20260905055005 54 229 0.0 0.0 0.00 0.00 0.00 63 1017.1
20260905054503 54 229 0.0 0.0 0.00 0.00 0.00 63 1017.2
20260905054006 54 229 0.0 0.0 0.00 0.00 0.00 63 1017.2
20260905053504 54 229 0.0 0.0 0.00 0.00 0.00 63 1017.1
20260905053003 54 229 0.0 0.0 0.00 0.00 0.00 63 1017.2
20260905052505 54 229 0.0 0.0 0.00 0.00 0.00 63 1017.2